Change the Weather History Date:

Sunday, November 6, 2011

  Actual Average Record
Temperature  
Mean Temperature 58 °F 68 °F  
Max Temperature 67 °F 80 °F 94 °F (2007)
Min Temperature 48 °F 56 °F 34 °F (1922)
Degree Days  
Heating Degree Days 7 1  
Month to date heating degree days 15 6  
Since 1 July heating degree days 15 12  
Cooling Degree Days 0 4  
Month to date cooling degree days 24 31  
Year to date cooling degree days 4888 4567  
Growing Degree Days 7 (Base 50)    
Moisture  
Dew Point 40 °F    
Average Humidity 56    
Maximum Humidity 80    
Minimum Humidity 31    
Precipitation  
Precipitation 0.00 in 0.02 in 0.50 in (2000)
Month to date precipitation 0.46 0.12  
Year to date precipitation 3.21 6.62  
Snow  
Snow 0.00 in - - ()
Month to date snowfall 0.0  
Year to date snowfall 0.0  
Since 1 July snowfall 0.0  
Snow Depth 0.00 in    
Sea Level Pressure  
Sea Level Pressure 29.95 in    
Wind  
Wind Speed 3 mph (East)    
Max Wind Speed 9 mph    
Max Gust Speed 14 mph    
Visibility 10 miles    
Events      
T = Trace of Precipitation, MM = Missing Value Source: NWS Daily Summary

Daily Weather History Graph

Daily Weather History Graph

Search for Another Location

Airport or City:

Trip Planner

Search our weather history database for the weather conditions in past years. The results will help you decide how hot, cold, wet, or windy it might be!

Date:

Astronomy

Nov. 06, 2011 Rise Set
Actual Time 6:50 AM MST 5:31 PM MST
Civil Twilight 6:25 AM MST 5:57 PM MST
Nautical Twilight 5:55 AM MST 6:27 PM MST
Astronomical Twilight 5:26 AM MST 6:56 PM MST
Moon 3:09 PM MST (11/6) 3:10 AM MST (11/6)
Length of Visible Light 11h 32m
Length of Day
10h 40m
Waxing Gibbous, 86% of the Moon is Illuminated
Nov 6
Waxing Gibbous
Nov 10
Full
Nov 18
Last Quarter
Nov 24
New
Dec 2
First Quarter

Hourly Weather History & Observations

Time (MST) Temp. Dew Point Humidity Pressure Visibility Wind Dir Wind Speed Gust Speed Precip Events Conditions
12:51 AM 52.0 °F 45.0 °F 77% 29.95 in 10.0 mi East 4.6 mph - N/A   Partly Cloudy
1:51 AM 52.0 °F 44.1 °F 74% 29.95 in 10.0 mi ENE 4.6 mph - N/A   Partly Cloudy
2:51 AM 51.1 °F 43.0 °F 74% 29.95 in 10.0 mi East 5.8 mph - N/A   Partly Cloudy
3:51 AM 50.0 °F 42.1 °F 74% 29.95 in 10.0 mi Calm Calm - N/A   Partly Cloudy
4:51 AM 48.9 °F 42.1 °F 77% 29.96 in 10.0 mi East 3.5 mph - N/A   Clear
5:51 AM 48.9 °F 43.0 °F 80% 29.97 in 10.0 mi East 3.5 mph - N/A   Clear
6:51 AM 48.0 °F 41.0 °F 77% 29.98 in 10.0 mi East 3.5 mph - N/A   Scattered Clouds
7:51 AM 48.9 °F 42.1 °F 77% 29.99 in 10.0 mi East 5.8 mph - N/A   Partly Cloudy
8:51 AM 54.0 °F 42.1 °F 64% 30.01 in 10.0 mi East 6.9 mph - N/A   Clear
9:51 AM 57.0 °F 39.9 °F 53% 30.01 in 10.0 mi ENE 5.8 mph - N/A   Scattered Clouds
10:51 AM 61.0 °F 37.0 °F 41% 30.00 in 10.0 mi ESE 3.5 mph - N/A   Scattered Clouds
11:51 AM 62.1 °F 35.1 °F 37% 29.99 in 10.0 mi Calm Calm - N/A   Scattered Clouds
12:51 PM 63.0 °F 35.1 °F 35% 29.96 in 10.0 mi Variable 5.8 mph - N/A   Scattered Clouds
1:51 PM 66.0 °F 37.0 °F 34% 29.94 in 10.0 mi SSW 5.8 mph - N/A   Scattered Clouds
2:51 PM 64.0 °F 34.0 °F 33% 29.92 in 10.0 mi WNW 3.5 mph - N/A   Scattered Clouds
3:51 PM 66.0 °F 36.0 °F 33% 29.92 in 10.0 mi SW 3.5 mph - N/A   Scattered Clouds
4:51 PM 64.0 °F 34.0 °F 33% 29.91 in 10.0 mi Calm Calm - N/A   Scattered Clouds
5:51 PM 63.0 °F 35.1 °F 35% 29.91 in 10.0 mi Calm Calm - N/A   Partly Cloudy
6:51 PM 62.1 °F 37.9 °F 41% 29.91 in 10.0 mi Calm Calm - N/A   Mostly Cloudy
7:51 PM 61.0 °F 37.9 °F 42% 29.91 in 10.0 mi Calm Calm - N/A   Scattered Clouds
8:51 PM 59.0 °F 43.0 °F 55% 29.92 in 10.0 mi Calm Calm - N/A   Partly Cloudy
9:51 PM 57.9 °F 41.0 °F 53% 29.92 in 10.0 mi Calm Calm - N/A   Mostly Cloudy
10:51 PM 57.0 °F 41.0 °F 55% 29.92 in 10.0 mi East 5.8 mph - N/A   Scattered Clouds
11:51 PM 55.9 °F 42.1 °F 60% 29.91 in 10.0 mi ESE 6.9 mph - N/A   Scattered Clouds